Overview Statistics Trail Chart Weather Telemetry Raw packets
 

This is the latest recevied weather packets stored in our database for station/object N4XHQ-13. If no packets are shown the sender has not sent any weather packets the latest 10 day(s).

<< 108 109 110 111 112 113 114 >>
Time Temp. Humidity Pressure Rain* Wind** Luminosity Snow
1787747941 22.78° C 85% 1016.7 hPa 0 mm - 67 W/m² -
1787747635 22.22° C 86% 1016.9 hPa 0 mm - 62 W/m² -
1787747331 22.22° C 86% 1016.6 hPa 0 mm - 57 W/m² -
1787747031 22.22° C 87% 1016.5 hPa 0 mm - 53 W/m² -
1787746727 21.67° C 88% 1016.6 hPa 0 mm - 49 W/m² -
1787746426 21.67° C 88% 1016.6 hPa 0 mm - 45 W/m² -
1787746124 21.67° C 88% 1016.5 hPa 0 mm - 43 W/m² -
1787745820 21.67° C 89% 1016.4 hPa 0 mm - 39 W/m² -
1787745518 21.67° C 89% 1016.5 hPa 0 mm - 35 W/m² -
1787745213 21.67° C 89% 1016.3 hPa 0 mm - 30 W/m² -
1787744909 21.67° C 89% 1016.5 hPa 0 mm - 26 W/m² -
1787744605 21.11° C 89% 1016.1 hPa 0 mm - 21 W/m² -
1787744300 21.11° C 89% 1016.3 hPa 0 mm - 16 W/m² -
1787743996 21.11° C 89% 1016.3 hPa 0 mm - 11 W/m² -
1787743696 21.11° C 89% 1016.1 hPa 0 mm - 8 W/m² -
1787743391 21.11° C 89% 1016 hPa 0 mm - 5 W/m² -
1787743088 21.11° C 89% 1016.1 hPa 0 mm - 3 W/m² -
1787742782 21.11° C 88% 1016.1 hPa 0 mm - 2 W/m² -
1787742477 21.11° C 88% 1016.1 hPa 0 mm - 1 W/m² -
1787742174 21.67° C 88% 1016.1 hPa 0 mm - 0 W/m² -
1787741869 21.67° C 88% 1016.1 hPa 0 mm - 0 W/m² -
1787741565 21.67° C 88% 1016 hPa 0 mm - 0 W/m² -
1787741259 21.67° C 88% 1015.9 hPa 0 mm - 0 W/m² -
1787740959 21.67° C 87% 1016.1 hPa 0 mm - 0 W/m² -
1787740658 21.67° C 87% 1015.9 hPa 0 mm - 0 W/m² -

* Rain latest hour (hover to see other rain measurements)
** Current wind speed in m/s (hover to see current wind gust speed)